Retour au catalogue

CZ-6A DEB

ActifSSO
NORAD 54510·DEBRIS·🇨🇳 China

Lancé Nov 11, 2022 depuis Taiyuan Satellite Launch Center

Loading…

Prochains Passages (prochaines 24 heures)

TLE

FraisSource: Space-Track

Époque: Sep 14, 2026, 08:45 UTC

1 54510U 22151JN  26257.36501876  .00001581  00000-0  46075-3 0  9994
2 54510  98.6691 306.9743 0060539  30.4997 329.9691 14.44547521201361

Suivez CZ-6A DEB en temps réel avec AllMySat

Download on the App Store